DateTimeUTC,F1_A11,F1_S11,BsB_S11,BsG_S11,BsR_S11,BbsB_S11,BbsG_S11,BbsR_S11,BaB_A11,BaG_A11,BaR_A11,Tu_S11,T_S11,Uu_S11,U_S11,P_S11,T1_A11
2021-11-23T23:00:00Z,00000200,21000000,,,,,,,-000.32,0000.52,0000.06,18.3,25.3,,00.0,0645.7,30.8
2021-11-23T23:01:00Z,00000200,21000000,,,,,,,0000.35,-000.28,0000.26,18.3,25.3,,00.0,0645.7,30.8
2021-11-23T23:02:00Z,00000200,21000000,,,,,,,0000.23,0000.12,-000.09,18.4,25.4,,00.0,0645.7,30.8
2021-11-23T23:03:00Z,00000200,61000000,,,,,,,-000.00,0000.40,0000.07,18.4,25.4,,00.0,0645.7,30.8
2021-11-23T23:04:00Z,00000200,41000000,0000.92,-000.03,0000.17,0000.31,0000.10,-000.09,0000.46,0000.23,0000.24,18.6,25.2,,00.0,0646.6,30.8
2021-11-23T23:05:00Z,00000200,01000000,0000.07,0000.21,0000.15,0000.23,-000.03,0000.03,0000.13,0000.02,0000.54,18.7,25.2,,00.0,0646.6,30.8
2021-11-23T23:06:00Z,00000200,01000000,0000.01,0000.12,0000.30,-000.47,0000.09,-000.09,0000.01,0000.07,-000.24,18.7,25.2,,00.0,0646.6,30.8
2021-11-23T23:07:00Z,00000200,01000000,0000.65,-000.17,0000.02,0000.23,-000.28,-000.14,0000.37,0000.43,0000.29,18.8,25.2,,00.0,0646.6,30.8
2021-11-23T23:08:00Z,00000200,01000000,0000.71,0000.19,0000.23,-000.32,-000.29,0000.06,0000.30,0000.33,0000.22,18.8,25.2,,00.0,0646.6,30.8
2021-11-23T23:09:00Z,00000200,01000000,-000.60,0000.17,-000.16,0000.48,-000.05,0000.14,0000.05,-000.04,0000.12,18.8,25.2,,00.0,0646.6,30.8
2021-11-23T23:10:00Z,00000200,01000000,0000.76,-000.07,0000.28,0000.34,-000.31,-000.02,0000.28,-000.16,0000.10,18.8,25.2,,00.0,0646.6,30.8
2021-11-23T23:11:00Z,00000200,01000000,0000.71,0000.10,-000.19,0000.06,-000.22,0000.20,-000.21,0000.05,-000.07,18.8,25.2,,00.0,0646.6,30.8
2021-11-23T23:12:00Z,00000200,01000000,-000.45,0000.57,0000.23,0000.48,0000.41,-000.19,0000.28,0000.57,-000.16,18.9,25.2,,00.0,0646.6,30.8
2021-11-23T23:13:00Z,00000200,01000000,0000.53,0000.18,0000.29,0000.54,0000.14,-000.11,0000.23,0000.11,0000.48,18.9,25.2,,00.0,0646.6,30.8
2021-11-23T23:14:00Z,00000200,01000000,0000.50,0000.42,0000.31,-000.03,0000.23,0000.00,-000.16,-000.16,0000.22,18.9,25.2,,00.0,0646.6,30.8
2021-11-23T23:15:00Z,00000200,01000000,0000.27,0000.37,0000.41,0000.56,0000.10,-000.01,0000.53,0000.21,-000.02,18.9,25.2,,00.0,0646.6,30.8
2021-11-23T23:16:00Z,00000200,01000000,0000.62,0000.03,0000.42,-000.37,-000.02,0000.02,0000.43,0000.58,0000.35,19.0,25.3,,00.0,0646.7,30.8
2021-11-23T23:17:00Z,00000200,01000000,0000.60,0000.07,0000.30,0000.51,0000.03,0000.07,-000.11,-000.37,-000.12,19.0,25.3,,00.0,0646.7,30.8
2021-11-23T23:18:00Z,00000200,01000000,0000.52,0000.34,0000.10,0000.38,0000.16,0000.25,0000.23,0000.28,0000.08,19.0,25.3,,00.0,0646.7,30.8
2021-11-23T23:19:00Z,00000200,01000000,0000.98,0000.02,0000.04,-000.16,0000.33,0000.18,0000.05,0000.25,0000.11,19.0,25.3,,00.0,0646.7,30.9
2021-11-23T23:20:00Z,00000200,01000000,-000.30,0000.03,0000.32,0000.26,-000.05,0000.13,0000.15,-000.10,0000.01,19.0,25.3,,00.0,0646.7,30.8
2021-11-23T23:21:00Z,00000200,01000000,0000.69,0000.07,0000.15,0000.22,-000.02,0000.09,-000.14,-000.31,-000.18,19.0,25.4,,00.0,0646.7,30.8
2021-11-23T23:22:00Z,00000200,01000000,0000.03,0000.29,0000.19,0000.11,-000.01,0000.14,0000.19,0000.73,0000.18,19.1,25.4,,00.0,0646.7,30.8
2021-11-23T23:23:00Z,00000200,01000000,0000.41,0000.06,-000.05,-000.17,0000.33,-000.04,0000.23,-000.20,0000.03,19.1,25.4,,00.0,0646.7,30.9
2021-11-23T23:24:00Z,00000200,01000000,0000.03,0000.22,0000.37,-000.16,0000.10,0000.04,-000.36,-000.12,-000.00,19.1,25.4,,00.0,0646.7,30.8
2021-11-23T23:25:00Z,00000200,01000000,0000.17,-000.11,0000.14,0000.46,-000.08,-000.05,0000.37,0000.24,-000.01,19.1,25.4,,00.0,0646.7,30.8
2021-11-23T23:26:00Z,00000200,01000000,0000.82,0000.07,0000.21,-000.08,0000.40,-000.05,0000.01,0000.10,-000.07,19.1,25.4,,00.0,0646.7,30.9
2021-11-23T23:27:00Z,00000200,01000000,-000.19,0000.13,0000.09,0000.41,0000.19,-000.15,-000.16,-000.35,-000.18,19.1,25.4,,00.0,0646.7,30.9
2021-11-23T23:28:00Z,00000200,01000000,0000.29,0000.34,0000.03,0000.79,0000.08,0000.09,-000.13,0000.16,-000.25,19.1,25.4,,00.0,0646.7,30.8
2021-11-23T23:29:00Z,00000200,01000000,-000.11,0000.15,0000.14,-000.43,0000.08,-000.10,-000.26,0000.01,-000.08,19.1,25.4,,00.0,0646.7,30.8
2021-11-23T23:30:00Z,00000200,01000000,0000.31,-000.19,0000.18,-000.13,0000.14,0000.13,0000.34,-000.43,-000.01,19.1,25.4,,00.0,0646.7,30.8
2021-11-23T23:31:00Z,00000200,01000000,0000.06,0000.18,0000.45,0000.15,0000.30,0000.05,-000.07,-000.17,0000.38,19.0,25.4,,00.0,0646.6,30.8
2021-11-23T23:32:00Z,00000200,01000000,0000.25,0000.33,0000.05,-000.08,-000.10,-000.06,0000.14,0000.61,-000.35,18.9,25.3,,00.0,0646.6,30.8
2021-11-23T23:33:00Z,00000200,01000000,0001.13,-000.10,0000.38,0000.01,0000.14,0000.02,0000.50,0000.29,0000.23,18.8,25.3,,00.0,0646.6,30.8
2021-11-23T23:34:00Z,00000200,01000000,0001.29,0000.16,0000.12,0000.29,0000.01,-000.07,-000.05,0000.13,0000.47,18.7,25.2,,00.0,0646.6,30.8
2021-11-23T23:35:00Z,00000200,01000000,0001.82,0000.08,-000.11,-000.25,0000.06,0000.39,0000.62,0000.08,0000.06,18.7,25.2,,00.0,0646.5,30.8
2021-11-23T23:36:00Z,00000200,01000000,0000.71,0000.10,0000.18,0000.10,0000.07,-000.06,0000.29,0000.40,0000.47,18.7,25.2,,00.0,0646.5,30.8
2021-11-23T23:37:00Z,00000200,01000000,0000.59,0000.09,0000.06,-000.51,-000.05,0000.21,0000.43,0000.43,0000.08,18.7,25.2,,00.0,0646.5,30.8
2021-11-23T23:38:00Z,00000200,01000000,0000.29,0000.02,0000.11,0000.28,-000.42,-000.02,0000.53,0000.41,0000.36,18.7,25.2,,00.0,0646.4,30.8
2021-11-23T23:39:00Z,00000200,01000000,0000.79,0000.13,0000.15,-000.05,0000.29,-000.02,-000.35,-000.08,0000.19,18.8,25.2,,00.0,0646.4,30.8
2021-11-23T23:40:00Z,00000200,01000000,0000.86,-000.27,0000.36,-000.27,0000.29,0000.24,0000.11,0000.58,-000.26,18.8,25.2,,00.0,0646.4,30.8
2021-11-23T23:41:00Z,00000200,01000000,0001.00,0000.10,0000.48,0000.15,0000.06,0000.15,0000.40,-000.29,0000.24,18.8,25.2,,00.0,0646.4,30.8
2021-11-23T23:42:00Z,00000200,01000000,0000.59,0000.02,0000.34,-000.05,0000.05,0000.13,0000.10,0000.30,0000.01,18.8,25.2,,00.0,0646.5,30.8
2021-11-23T23:43:00Z,00000200,01000000,0000.65,0000.22,-000.26,0000.31,0000.07,-000.31,-000.06,-000.22,0000.34,18.8,25.2,,00.0,0646.5,30.8
2021-11-23T23:44:00Z,00000200,01000000,0000.78,0000.08,0000.42,0000.01,0000.35,0000.11,0000.09,0000.01,-000.48,18.8,25.2,,00.0,0646.5,30.8
2021-11-23T23:45:00Z,00000200,01000000,0000.06,0000.41,-000.01,0000.49,0000.29,0000.09,-000.09,-000.07,0000.03,18.7,25.2,,00.0,0646.5,30.8
2021-11-23T23:46:00Z,00000200,01000000,0000.86,0000.29,0000.26,0000.53,0000.24,-000.27,-000.12,0000.20,0000.39,18.6,25.2,,00.0,0646.5,30.8
2021-11-23T23:47:00Z,00000200,01000000,0000.46,-000.08,0000.38,-000.42,-000.26,0000.00,0000.17,0000.30,-000.32,18.5,25.1,,00.0,0646.5,30.7
2021-11-23T23:48:00Z,00000200,01000000,0000.90,0000.26,0000.21,0000.19,0000.23,0000.10,0000.15,-000.08,0000.14,18.4,25.0,,00.0,0646.5,30.7
2021-11-23T23:49:00Z,00000200,01000000,0000.85,0000.12,0000.04,0000.40,-000.20,-000.00,0000.49,0000.16,0000.33,18.4,25.0,,00.0,0646.5,30.7
2021-11-23T23:50:00Z,00000200,01000000,0000.65,0000.03,0000.23,-000.44,-000.09,-000.16,-000.06,0000.01,-000.05,18.4,25.0,,00.0,0646.5,30.7
2021-11-23T23:51:00Z,00000200,01000000,0000.19,0000.09,0000.26,0000.34,0000.07,-000.35,0000.16,0000.25,0000.07,18.4,24.9,,00.0,0646.5,30.7
2021-11-23T23:52:00Z,00000200,01000000,0001.10,0000.05,0000.08,-000.41,0000.04,0000.19,0000.09,0000.09,0000.18,18.4,24.9,,00.0,0646.5,30.7
2021-11-23T23:53:00Z,00000200,01000000,0001.06,0000.10,0000.34,-000.03,-000.10,0000.06,0000.50,0000.35,0000.08,18.4,24.9,,00.0,0646.5,30.7
2021-11-23T23:54:00Z,00000200,01000000,0001.10,0000.29,0000.56,-000.35,0000.35,0000.45,0000.12,0000.23,0000.42,18.4,24.9,,00.0,0646.5,30.7
2021-11-23T23:55:00Z,00000200,01000000,0000.78,0000.14,0000.28,-000.20,-000.06,-000.16,0000.29,0000.13,-000.11,18.4,24.9,,00.0,0646.5,30.7
2021-11-23T23:56:00Z,00000200,01000000,0000.93,0000.08,0000.07,0000.03,0000.04,0000.50,0000.06,0000.09,0000.28,18.4,24.9,,00.0,0646.6,30.8
2021-11-23T23:57:00Z,00000200,41000000,,,,,,,0000.58,0000.83,0000.41,18.5,25.0,,00.0,0646.6,30.7
2021-11-23T23:58:00Z,00000200,61000000,,,,,,,-000.46,-000.46,-000.33,18.2,25.1,,00.0,0645.7,30.7
2021-11-23T23:59:00Z,00000200,21000000,,,,,,,-000.06,-000.43,-000.01,18.2,25.2,,00.0,0645.7,30.8
